Flag for USA

Past Weather in Greeley, Colorado, USA — Yesterday and Last 2 Weeks

Now
19 °F

Clear.


Feels Like: 11 °F
Forecast: 58 / 19 °F
Wind: 6 mph from North

Location: Greeley / Weld
Current Time: Oct 24, 2020 at 4:14:54 am
Latest Report: Oct 24, 2020 at 2:56 am
Visibility: 10 mi
Pressure30.05 "Hg(25.02 "Hg at 1424m altitude)
Humidity: 81%
Dew Point: 14 °F
Location of GreeleyLocation

Past Weather in Greeley — Graph

°F

Greeley Temperature Yesterday

Maximum temperature yesterday: 40 °F (at 3:56 pm)
Minimum temperature yesterday: 21 °F (at 7:25 am)
Average temperature yesterday: 29 °F

High & Low Weather Summary for the Past Weeks

 TemperatureHumidityPressure
High85 °F (Oct 9, 1:56 pm)100% (Oct 18, 2:56 pm)30.60 "Hg (Oct 18, 2:56 pm)
Low19 °F (Oct 24, 2:56 am)9% (Oct 9, 4:56 pm)29.56 "Hg (Oct 11, 9:56 am)
Average46 °F53%30.04 "Hg
* Reported Oct 9 2:56 am — Oct 24 2:56 am, Greeley. Weather by CustomWeather, © 2020

Note: Actual official high and low records may vary slightly from our data, if they occured in-between our weather recording intervals... More about our weather records

Greeley Weather History for the Previous 24 Hours

Scroll right to see more
 ConditionsComfort  
Time TempWeatherWind HumidityBarometerVisibility
2:56 am
Sat, Oct 24
19 °FClear.6 mph81%30.05 "Hg10 mi
1:56 am20 °FClear.5 mph78%30.09 "Hg10 mi
12:56 am23 °FClear.7 mph78%30.12 "Hg10 mi
11:56 pm
Fri, Oct 23
24 °FClear.6 mph75%30.17 "Hg10 mi
10:56 pm26 °FClear.7 mph71%30.20 "Hg10 mi
9:56 pm26 °FClear.6 mph71%30.23 "Hg10 mi
8:56 pm29 °FClear.8 mph69%30.26 "Hg10 mi
7:56 pm32 °FClear.7 mph61%30.28 "Hg10 mi
6:56 pm36 °FOvercast.7 mph54%30.29 "Hg10 mi
5:56 pm36 °FPartly sunny.9 mph54%30.30 "Hg10 mi
4:56 pm40 °FPassing clouds.12 mph41%30.32 "Hg10 mi
3:56 pm40 °FSunny.8 mph41%30.34 "Hg10 mi
2:56 pm39 °FPassing clouds.14 mph41%30.37 "Hg10 mi
1:56 pm36 °FPartly sunny.7 mph46%30.42 "Hg10 mi
12:56 pm31 °FPartly sunny.No wind57%30.49 "Hg10 mi
12:39 pm34 °FOvercast.5 mph48%30.37 "Hg10 mi
11:56 am30 °FOvercast.5 mph59%30.53 "Hg10 mi
10:56 am27 °FOvercast.No wind66%30.57 "Hg10 mi
9:56 am25 °FOvercast.No wind69%30.59 "Hg10 mi
8:56 am23 °FLight snow. Overcast.6 mph74%30.60 "Hg9 mi
7:56 am23 °FMostly cloudy.6 mph72%30.57 "Hg10 mi
7:25 am21 °FMore clouds than sun.9 mph80%30.41 "Hg9 mi
6:56 am23 °FLight snow. Mostly cloudy.9 mph72%30.56 "Hg9 mi
5:56 am23 °FMostly cloudy.10 mph72%30.55 "Hg10 mi
4:56 am23 °FOvercast.9 mph72%30.52 "Hg10 mi
Weather by CustomWeather, © 2020

See weather overview